Location: ČR
(50.0000°N, 15.0000°E)
Time: 14:54:54
(UTC+00:00)

Explorer 7 - Pass Details

Date: 25 October 2021
Orbit: 483 x 675 km, 50.3° (Epoch: 27 November)

Event Time Altitude Azimuth Distance (km) Brightness Sun altitude
Rises 00:11:52 0° 283° (WNW) 2,795 - -48.0°
Reaches altitude 10° 00:14:04 10° 281° (W) 1,926 - -47.8°
Maximum altitude 00:18:29 71° 198° (SSW) 657 - -47.4°
Drops below altitude 10° 00:23:09 10° 115° (ESE) 2,036 - -47.0°
Sets 00:25:33 0° 113° (ESE) 2,968 - -46.8°
